This demonstration page uses our WeatherBlox Daily Observations layout. Learn more.

Left ArrowRight Arrow

39.12711, -84.51439

Hourly Observations for June 29, 2017

Temp ( °F °C ) Dew Point ( °F °C ) Humidity (%) Winds ( mph kmh ) Pressure ( in mb ) Visibility ( mi km ) Precip ( " mm )
12:53 am 00:53 Clear 61 16.1 59 15 93 93 NE 3 6 30.04 1017 10 16 0.00 0.00
1:53 am 01:53 Clear 60 15.6 58 14.4 93 93 Calm 30.03 1017 10 16 0.00 0.00
2:53 am 02:53 Clear 63 17.2 59 15 87 87 Calm 30.01 1016 10 16 0.00 0.00
3:53 am 03:53 Clear 61 16.1 59 15 93 93 Calm 30.01 1016 10 16 0.00 0.00
4:53 am 04:53 Clear 60 15.6 58 14.4 93 93 Calm 30.01 1016 10 16 0.00 0.00
5:53 am 05:53 Clear 60 15.6 58 14.4 93 93 Calm 30.02 1017 10 16 0.00 0.00
6:53 am 06:53 Mostly Cloudy 63 17.2 59 15 87 87 Calm 30.02 1017 10 16 0.00 0.00
7:53 am 07:53 Mostly Sunny 69 20.6 62 16.7 78 78 SSW 5 7 30.02 1017 10 16 0.00 0.00
8:53 am 08:53 Mostly Cloudy 72 22.2 64 17.8 76 76 S 12 19 30.01 1016 10 16 0.00 0.00
9:35 am 09:35 Sunny 76 24.4 65 18.3 69 69 SSW 16 26 29.97 1015 10 16 0.00 0.00
9:53 am 09:53 Sunny 77 25 67 19.4 71 71 SSW 15 24 29.98 1015 10 16 0.00 0.00
10:53 am 10:53 Partly Cloudy 80 26.7 68 20 67 67 SSW 16 26 29.98 1015 10 16 0.00 0.00
11:53 am 11:53 Partly Cloudy 81 27.2 69 20.6 67 67 SW 20 31 29.98 1015 10 16 0.00 0.00
12:53 pm 12:53 Partly Cloudy 83 28.3 70 21.1 65 65 SSW 16 26 29.98 1015 10 16 0.00 0.00
1:53 pm 13:53 Mostly Cloudy 84 28.9 69 20.6 61 61 SW 15 24 29.98 1015 10 16 0.00 0.00
2:53 pm 14:53 Mostly Sunny 84 28.9 69 20.6 61 61 SW 14 22 29.98 1015 10 16 0.00 0.00
3:53 pm 15:53 Mostly Cloudy 86 30 68 20 55 55 SSW 12 19 29.97 1015 10 16 0.00 0.00
4:53 pm 16:53 Sunny 86 30 69 20.6 57 57 SSW 16 26 29.95 1014 10 16 0.00 0.00
5:53 pm 17:53 Partly Cloudy 85 29.4 69 20.6 59 59 SW 14 22 29.94 1014 10 16 0.00 0.00
6:53 pm 18:53 Mostly Sunny 84 28.9 70 21.1 63 63 SW 12 19 29.94 1014 10 16 0.00 0.00
7:53 pm 19:53 Sunny 83 28.3 70 21.1 65 65 S 10 17 29.93 1014 10 16 0.00 0.00
8:53 pm 20:53 Mostly Sunny 79 26.1 70 21.1 74 74 S 6 9 29.92 1013 10 16 0.00 0.00
9:53 pm 21:53 Clear 77 25 69 20.6 77 77 SSW 5 7 29.92 1013 10 16 0.00 0.00
10:53 pm 22:53 Clear 77 25 70 21.1 79 79 S 8 13 29.94 1014 10 16 0.00 0.00
11:53 pm 23:53 Cloudy 77 25 70 21.1 79 79 SSW 10 17 29.95 1014 10 16 0.00 0.00

Powered by AerisWeather